Year,Month,Day,Hour,Minute,Value (Times are PST for windspeed in km/hr)
2016,01,29,00,00,3.20
2016,01,29,00,01,2.50
2016,01,29,00,02,2.40
2016,01,29,00,03,0.80
2016,01,29,00,04,0.00
2016,01,29,00,05,0.10
2016,01,29,00,06,0.70
2016,01,29,00,07,0.20
2016,01,29,00,08,0.50
2016,01,29,00,09,0.10
2016,01,29,00,10,0.00
2016,01,29,00,11,0.00
2016,01,29,00,12,0.00
2016,01,29,00,13,0.00
2016,01,29,00,14,0.00
2016,01,29,00,15,0.00
2016,01,29,00,16,0.00
2016,01,29,00,17,0.00
2016,01,29,00,18,0.00
2016,01,29,00,19,0.80
2016,01,29,00,20,2.60
2016,01,29,00,21,3.40
2016,01,29,00,22,2.80
2016,01,29,00,23,1.70
2016,01,29,00,24,1.20
2016,01,29,00,25,0.10
2016,01,29,00,26,2.20
2016,01,29,00,27,2.50
2016,01,29,00,28,3.10
2016,01,29,00,29,2.80
2016,01,29,00,30,1.60
2016,01,29,00,31,2.20
2016,01,29,00,32,3.20
2016,01,29,00,33,2.80
2016,01,29,00,34,1.10
2016,01,29,00,35,0.70
2016,01,29,00,36,0.30
2016,01,29,00,37,0.20
2016,01,29,00,38,0.20
2016,01,29,00,39,0.00
2016,01,29,00,40,0.50
2016,01,29,00,41,0.10
2016,01,29,00,42,0.10
2016,01,29,00,43,0.40
2016,01,29,00,44,0.80
2016,01,29,00,45,0.10
2016,01,29,00,46,1.70
2016,01,29,00,47,0.20
2016,01,29,00,48,0.80
2016,01,29,00,49,1.90
2016,01,29,00,50,1.80
2016,01,29,00,51,2.40
2016,01,29,00,52,1.00
2016,01,29,00,53,1.60
2016,01,29,00,54,0.40
2016,01,29,00,55,1.90
2016,01,29,00,56,1.30
2016,01,29,00,57,4.10
2016,01,29,00,58,3.50
2016,01,29,00,59,2.80
2016,01,29,01,00,3.00
2016,01,29,01,01,1.40
2016,01,29,01,02,2.10
2016,01,29,01,03,2.70
2016,01,29,01,04,0.20
2016,01,29,01,05,0.40
2016,01,29,01,06,0.50
2016,01,29,01,07,0.70
2016,01,29,01,08,1.00
2016,01,29,01,09,3.50
2016,01,29,01,10,3.90
2016,01,29,01,11,4.50
2016,01,29,01,12,1.70
2016,01,29,01,13,0.60
2016,01,29,01,14,1.60
2016,01,29,01,15,3.20
2016,01,29,01,16,0.40
2016,01,29,01,17,0.80
2016,01,29,01,18,6.60
2016,01,29,01,19,6.60
2016,01,29,01,20,7.50
2016,01,29,01,21,6.00
2016,01,29,01,22,3.60
2016,01,29,01,23,3.70
2016,01,29,01,24,2.40
2016,01,29,01,25,3.70
2016,01,29,01,26,4.70
2016,01,29,01,27,2.90
2016,01,29,01,28,4.50
2016,01,29,01,29,4.00
2016,01,29,01,30,3.40
2016,01,29,01,31,6.10
2016,01,29,01,32,3.90
2016,01,29,01,33,5.50
2016,01,29,01,34,4.50
2016,01,29,01,35,4.50
2016,01,29,01,36,10.00
2016,01,29,01,37,7.10
2016,01,29,01,38,2.40
2016,01,29,01,39,4.80
2016,01,29,01,40,8.60
2016,01,29,01,41,4.90
2016,01,29,01,42,2.90
2016,01,29,01,43,3.80
2016,01,29,01,44,4.30
2016,01,29,01,45,6.70
2016,01,29,01,46,10.30
2016,01,29,01,47,3.90
2016,01,29,01,48,7.40
2016,01,29,01,49,5.70
2016,01,29,01,50,7.60
2016,01,29,01,51,9.70
2016,01,29,01,52,3.00
2016,01,29,01,53,3.60
2016,01,29,01,54,7.30
2016,01,29,01,55,10.60
2016,01,29,01,56,9.10
2016,01,29,01,57,9.80
2016,01,29,01,58,8.60
2016,01,29,01,59,6.30
2016,01,29,02,00,7.00
2016,01,29,02,01,9.10
2016,01,29,02,02,7.20
2016,01,29,02,03,7.30
2016,01,29,02,04,8.60
2016,01,29,02,05,6.10
2016,01,29,02,06,9.50
2016,01,29,02,07,8.00
2016,01,29,02,08,7.00
2016,01,29,02,09,6.60
2016,01,29,02,10,7.80
2016,01,29,02,11,12.20
2016,01,29,02,12,13.80
2016,01,29,02,13,7.40
2016,01,29,02,14,12.70
2016,01,29,02,15,15.60
2016,01,29,02,16,6.60
2016,01,29,02,17,9.10
2016,01,29,02,18,6.40
2016,01,29,02,19,11.50
2016,01,29,02,20,10.00
2016,01,29,02,21,5.70
2016,01,29,02,22,6.60
2016,01,29,02,23,10.00
2016,01,29,02,24,10.20
2016,01,29,02,25,10.60
2016,01,29,02,26,10.30
2016,01,29,02,27,8.30
2016,01,29,02,28,6.30
2016,01,29,02,29,3.90
2016,01,29,02,30,9.20
2016,01,29,02,31,11.30
2016,01,29,02,32,9.80
2016,01,29,02,33,13.00
2016,01,29,02,34,7.80
2016,01,29,02,35,13.90
2016,01,29,02,36,15.30
2016,01,29,02,37,13.10
2016,01,29,02,38,13.10
2016,01,29,02,39,8.90
2016,01,29,02,40,14.80
2016,01,29,02,41,13.10
2016,01,29,02,42,9.70
2016,01,29,02,43,4.90
2016,01,29,02,44,7.60
2016,01,29,02,45,10.80
2016,01,29,02,46,10.30
2016,01,29,02,47,13.20
2016,01,29,02,48,11.00
2016,01,29,02,49,6.60
2016,01,29,02,50,8.90
2016,01,29,02,51,8.10
2016,01,29,02,52,9.40
2016,01,29,02,53,16.80
2016,01,29,02,54,17.00
2016,01,29,02,55,18.70
2016,01,29,02,56,18.90
2016,01,29,02,57,12.80
2016,01,29,02,58,14.20
2016,01,29,02,59,19.90
2016,01,29,03,00,14.10
2016,01,29,03,01,12.10
2016,01,29,03,02,8.20
2016,01,29,03,03,13.50
2016,01,29,03,04,11.70
2016,01,29,03,05,10.70
2016,01,29,03,06,12.10
2016,01,29,03,07,8.60
2016,01,29,03,08,9.10
2016,01,29,03,09,12.00
2016,01,29,03,10,13.40
2016,01,29,03,11,9.60
2016,01,29,03,12,10.90
2016,01,29,03,13,9.00
2016,01,29,03,14,12.50
2016,01,29,03,15,11.10
2016,01,29,03,16,7.50
2016,01,29,03,17,11.10
2016,01,29,03,18,7.50
2016,01,29,03,19,15.40
2016,01,29,03,20,17.90
2016,01,29,03,21,13.30
2016,01,29,03,22,17.00
2016,01,29,03,23,21.10
2016,01,29,03,24,16.00
2016,01,29,03,25,13.40
2016,01,29,03,26,8.60
2016,01,29,03,27,15.70
2016,01,29,03,28,17.20
2016,01,29,03,29,13.90
2016,01,29,03,30,12.70
2016,01,29,03,31,9.40
2016,01,29,03,32,16.60
2016,01,29,03,33,16.50
2016,01,29,03,34,12.00
2016,01,29,03,35,5.20
2016,01,29,03,36,8.80
2016,01,29,03,37,11.50
2016,01,29,03,38,9.80
2016,01,29,03,39,8.00
2016,01,29,03,40,8.30
2016,01,29,03,41,10.80
2016,01,29,03,42,8.80
2016,01,29,03,43,6.30
2016,01,29,03,44,9.50
2016,01,29,03,45,8.80
2016,01,29,03,46,8.20
2016,01,29,03,47,11.70
2016,01,29,03,48,12.40
2016,01,29,03,49,9.00
2016,01,29,03,50,12.80
2016,01,29,03,51,17.60
2016,01,29,03,52,15.60
2016,01,29,03,53,10.30
2016,01,29,03,54,11.20
2016,01,29,03,55,8.20
2016,01,29,03,56,17.90
2016,01,29,03,57,11.80
2016,01,29,03,58,16.10
2016,01,29,03,59,16.30
2016,01,29,04,00,12.70
2016,01,29,04,01,14.50
2016,01,29,04,02,11.70
2016,01,29,04,03,10.70
2016,01,29,04,04,12.00
2016,01,29,04,05,15.00
2016,01,29,04,06,11.70
2016,01,29,04,07,11.20
2016,01,29,04,08,11.30
2016,01,29,04,09,9.20
2016,01,29,04,10,5.30
2016,01,29,04,11,6.50
2016,01,29,04,12,14.00
2016,01,29,04,13,8.20
2016,01,29,04,14,12.00
2016,01,29,04,15,8.00
2016,01,29,04,16,13.40
2016,01,29,04,17,9.90
2016,01,29,04,18,12.80
2016,01,29,04,19,13.60
2016,01,29,04,20,9.10
2016,01,29,04,21,15.40
2016,01,29,04,22,6.30
2016,01,29,04,23,13.00
2016,01,29,04,24,6.90
2016,01,29,04,25,14.80
2016,01,29,04,26,12.80
2016,01,29,04,27,11.10
2016,01,29,04,28,10.60
2016,01,29,04,29,9.30
2016,01,29,04,30,7.60
2016,01,29,04,31,3.90
2016,01,29,04,32,4.90
2016,01,29,04,33,4.00
2016,01,29,04,34,11.70
2016,01,29,04,35,4.50
2016,01,29,04,36,5.30
2016,01,29,04,37,5.40
2016,01,29,04,38,4.20
2016,01,29,04,39,4.50
2016,01,29,04,40,7.60
2016,01,29,04,41,9.00
2016,01,29,04,42,3.30
2016,01,29,04,43,5.70
2016,01,29,04,44,8.20
2016,01,29,04,45,14.70
2016,01,29,04,46,10.40
2016,01,29,04,47,7.90
2016,01,29,04,48,10.70
2016,01,29,04,49,11.90
2016,01,29,04,50,9.30
2016,01,29,04,51,11.50
2016,01,29,04,52,11.40
2016,01,29,04,53,4.10
2016,01,29,04,54,7.30
2016,01,29,04,55,10.10
2016,01,29,04,56,14.50
2016,01,29,04,57,8.80
2016,01,29,04,58,7.40
2016,01,29,04,59,10.50
2016,01,29,05,00,7.00
2016,01,29,05,01,10.80
2016,01,29,05,02,9.40
2016,01,29,05,03,8.40
2016,01,29,05,04,14.60
2016,01,29,05,05,11.60
2016,01,29,05,06,4.40
2016,01,29,05,07,6.90
2016,01,29,05,08,7.30
2016,01,29,05,09,8.50
2016,01,29,05,10,10.90
2016,01,29,05,11,15.90
2016,01,29,05,12,12.30
2016,01,29,05,13,13.50
2016,01,29,05,14,6.90
2016,01,29,05,15,7.70
2016,01,29,05,16,7.70
2016,01,29,05,17,9.40
2016,01,29,05,18,12.80
2016,01,29,05,19,13.40
2016,01,29,05,20,14.70
2016,01,29,05,21,10.50
2016,01,29,05,22,9.70
2016,01,29,05,23,14.30
2016,01,29,05,24,12.80
2016,01,29,05,25,12.00
2016,01,29,05,26,15.90
2016,01,29,05,27,16.80
2016,01,29,05,28,12.80
2016,01,29,05,29,17.00
2016,01,29,05,30,10.00
2016,01,29,05,31,10.40
2016,01,29,05,32,17.20
2016,01,29,05,33,19.40
2016,01,29,05,34,8.60
2016,01,29,05,35,17.20
2016,01,29,05,36,14.50
2016,01,29,05,37,17.80
2016,01,29,05,38,14.80
2016,01,29,05,39,15.00
2016,01,29,05,40,18.50
2016,01,29,05,41,15.10
2016,01,29,05,42,15.80
2016,01,29,05,43,16.90
2016,01,29,05,44,23.20
2016,01,29,05,45,15.80
2016,01,29,05,46,11.70
2016,01,29,05,47,9.10
2016,01,29,05,48,10.70
2016,01,29,05,49,14.20
2016,01,29,05,50,11.90
2016,01,29,05,51,14.20
2016,01,29,05,52,10.40
2016,01,29,05,53,17.10
2016,01,29,05,54,14.50
2016,01,29,05,55,9.50
2016,01,29,05,56,8.50
2016,01,29,05,57,10.10
2016,01,29,05,58,13.60
2016,01,29,05,59,19.10
2016,01,29,06,00,17.20
2016,01,29,06,01,12.40
2016,01,29,06,02,17.30
2016,01,29,06,03,8.70
2016,01,29,06,04,15.40
2016,01,29,06,05,16.30
2016,01,29,06,06,13.70
2016,01,29,06,07,14.40
2016,01,29,06,08,15.60
2016,01,29,06,09,15.40
2016,01,29,06,10,12.80
2016,01,29,06,11,21.90
2016,01,29,06,12,11.60
2016,01,29,06,13,15.60
2016,01,29,06,14,18.20
2016,01,29,06,15,17.10
2016,01,29,06,16,11.70
2016,01,29,06,17,11.50
2016,01,29,06,18,19.30
2016,01,29,06,19,13.90
2016,01,29,06,20,11.60
2016,01,29,06,21,15.70
2016,01,29,06,22,12.20
2016,01,29,06,23,8.70
2016,01,29,06,24,7.30
2016,01,29,06,25,12.10
2016,01,29,06,26,7.60
2016,01,29,06,27,13.10
2016,01,29,06,28,13.20
2016,01,29,06,29,21.00
2016,01,29,06,30,26.50
2016,01,29,06,31,18.80
2016,01,29,06,32,19.00
2016,01,29,06,33,14.60
2016,01,29,06,34,15.70
2016,01,29,06,35,11.90
2016,01,29,06,36,16.80
2016,01,29,06,37,18.50
2016,01,29,06,38,14.00
2016,01,29,06,39,13.40
2016,01,29,06,40,11.90
2016,01,29,06,41,19.10
2016,01,29,06,42,11.20
2016,01,29,06,43,17.00
2016,01,29,06,44,11.50
2016,01,29,06,45,13.20
2016,01,29,06,46,15.30
2016,01,29,06,47,10.50
2016,01,29,06,48,19.50
2016,01,29,06,49,22.10
2016,01,29,06,50,16.30
2016,01,29,06,51,11.70
2016,01,29,06,52,15.20
2016,01,29,06,53,15.60
2016,01,29,06,54,12.50
2016,01,29,06,55,11.10
2016,01,29,06,56,16.40
2016,01,29,06,57,14.40
2016,01,29,06,58,7.00
2016,01,29,06,59,8.60
2016,01,29,07,00,10.10
2016,01,29,07,01,12.40
2016,01,29,07,02,9.70
2016,01,29,07,03,11.40
2016,01,29,07,04,15.60
2016,01,29,07,05,14.40
2016,01,29,07,06,13.10
2016,01,29,07,07,11.20
2016,01,29,07,08,12.80
2016,01,29,07,09,9.70
2016,01,29,07,10,13.90
2016,01,29,07,11,8.10
2016,01,29,07,12,9.20
2016,01,29,07,13,11.70
2016,01,29,07,14,9.10
2016,01,29,07,15,10.00
2016,01,29,07,16,8.50
2016,01,29,07,17,10.30
2016,01,29,07,18,10.10
2016,01,29,07,19,6.30
2016,01,29,07,20,12.50
2016,01,29,07,21,9.80
2016,01,29,07,22,10.50
2016,01,29,07,23,11.00
2016,01,29,07,24,5.50
2016,01,29,07,25,1.70
2016,01,29,07,26,9.20
2016,01,29,07,27,9.70
2016,01,29,07,28,14.40
2016,01,29,07,29,17.60
2016,01,29,07,30,14.10
2016,01,29,07,31,13.40
2016,01,29,07,32,8.30
2016,01,29,07,33,11.90
2016,01,29,07,34,11.20
2016,01,29,07,35,12.30
2016,01,29,07,36,11.80
2016,01,29,07,37,18.10
2016,01,29,07,38,8.00
2016,01,29,07,39,12.30
2016,01,29,07,40,8.10
2016,01,29,07,41,9.60
2016,01,29,07,42,10.00
2016,01,29,07,43,12.80
2016,01,29,07,44,11.70
2016,01,29,07,45,7.50
2016,01,29,07,46,11.00
2016,01,29,07,47,7.30
2016,01,29,07,48,11.60
2016,01,29,07,49,9.80
2016,01,29,07,50,8.50
2016,01,29,07,51,15.90
2016,01,29,07,52,20.90
2016,01,29,07,53,14.90
2016,01,29,07,54,16.70
2016,01,29,07,55,14.60
2016,01,29,07,56,15.30
2016,01,29,07,57,8.50
2016,01,29,07,58,16.00
2016,01,29,07,59,18.30
2016,01,29,08,00,14.60
2016,01,29,08,01,15.30
2016,01,29,08,02,20.40
2016,01,29,08,03,12.80
2016,01,29,08,04,11.50
2016,01,29,08,05,11.70
2016,01,29,08,06,12.20
2016,01,29,08,07,18.80
2016,01,29,08,08,10.50
2016,01,29,08,09,17.40
2016,01,29,08,10,21.50
2016,01,29,08,11,21.20
2016,01,29,08,12,27.80
2016,01,29,08,13,14.60
2016,01,29,08,14,15.30
2016,01,29,08,15,18.90
2016,01,29,08,16,15.10
2016,01,29,08,17,28.50
2016,01,29,08,18,25.70
2016,01,29,08,19,25.70
2016,01,29,08,20,13.40
2016,01,29,08,21,20.90
2016,01,29,08,22,16.90
2016,01,29,08,23,17.40
2016,01,29,08,24,20.90
2016,01,29,08,25,14.20
2016,01,29,08,26,11.60
2016,01,29,08,27,18.70
2016,01,29,08,28,16.60
2016,01,29,08,29,13.00
2016,01,29,08,30,16.60
2016,01,29,08,31,23.40
2016,01,29,08,32,16.40
2016,01,29,08,33,12.60
2016,01,29,08,34,12.90
2016,01,29,08,35,11.90
2016,01,29,08,36,15.30
2016,01,29,08,37,11.20
2016,01,29,08,38,13.20
2016,01,29,08,39,14.80
2016,01,29,08,40,16.00
2016,01,29,08,41,15.70
2016,01,29,08,42,11.40
2016,01,29,08,43,15.80
2016,01,29,08,44,13.00
2016,01,29,08,45,11.10
2016,01,29,08,46,14.40
2016,01,29,08,47,11.10
2016,01,29,08,48,9.20
2016,01,29,08,49,10.60
2016,01,29,08,50,9.10
2016,01,29,08,51,11.70
2016,01,29,08,52,11.60
2016,01,29,08,53,8.00
2016,01,29,08,54,13.50
2016,01,29,08,55,12.00
2016,01,29,08,56,8.40
2016,01,29,08,57,8.90
2016,01,29,08,58,10.20
2016,01,29,08,59,14.60
2016,01,29,09,00,13.70
2016,01,29,09,01,8.80
2016,01,29,09,02,17.80
2016,01,29,09,03,14.40
2016,01,29,09,04,13.90
2016,01,29,09,05,12.30
2016,01,29,09,06,15.50
2016,01,29,09,07,14.40
2016,01,29,09,08,15.30
2016,01,29,09,09,10.30
2016,01,29,09,10,9.10
2016,01,29,09,11,11.10
2016,01,29,09,12,19.60
2016,01,29,09,13,13.50
2016,01,29,09,14,7.40
2016,01,29,09,15,8.60
2016,01,29,09,16,21.30
2016,01,29,09,17,26.60
2016,01,29,09,18,17.30
2016,01,29,09,19,9.80
2016,01,29,09,20,26.80
2016,01,29,09,21,19.40
2016,01,29,09,22,14.20
2016,01,29,09,23,21.40
2016,01,29,09,24,15.60
2016,01,29,09,25,6.70
2016,01,29,09,26,19.60
2016,01,29,09,27,14.80
2016,01,29,09,28,18.80
2016,01,29,09,29,8.10
2016,01,29,09,30,15.00
2016,01,29,09,31,18.00
2016,01,29,09,32,12.20
2016,01,29,09,33,14.00
2016,01,29,09,34,14.80
2016,01,29,09,35,16.60
2016,01,29,09,36,14.20
2016,01,29,09,37,19.40
2016,01,29,09,38,14.50
2016,01,29,09,39,8.70
2016,01,29,09,40,16.00
2016,01,29,09,41,13.10
2016,01,29,09,42,17.60
2016,01,29,09,43,15.10
2016,01,29,09,44,18.20
2016,01,29,09,45,15.50
2016,01,29,09,46,13.20
2016,01,29,09,47,12.50
2016,01,29,09,48,19.30
2016,01,29,09,49,13.80
2016,01,29,09,50,9.10
2016,01,29,09,51,23.70
2016,01,29,09,52,21.00
2016,01,29,09,53,21.90
2016,01,29,09,54,9.30
2016,01,29,09,55,20.00
2016,01,29,09,56,22.70
2016,01,29,09,57,15.10
2016,01,29,09,58,18.00
2016,01,29,09,59,14.80
2016,01,29,10,00,15.60
2016,01,29,10,01,17.40
2016,01,29,10,02,14.60
2016,01,29,10,03,16.30
2016,01,29,10,04,20.20
2016,01,29,10,05,14.80
2016,01,29,10,06,11.90
2016,01,29,10,07,19.50
2016,01,29,10,08,19.60
2016,01,29,10,09,10.70
2016,01,29,10,10,13.50
2016,01,29,10,11,12.20
2016,01,29,10,12,7.30
2016,01,29,10,13,7.90
2016,01,29,10,14,10.10
2016,01,29,10,15,16.70
2016,01,29,10,16,10.80
2016,01,29,10,17,15.30
2016,01,29,10,18,12.60
2016,01,29,10,19,12.90
2016,01,29,10,20,8.80
2016,01,29,10,21,9.70
2016,01,29,10,22,8.40
2016,01,29,10,23,6.30
2016,01,29,10,24,6.00
2016,01,29,10,25,4.90
2016,01,29,10,26,9.20
2016,01,29,10,27,15.70
2016,01,29,10,28,9.40
2016,01,29,10,29,10.70
2016,01,29,10,30,13.60
2016,01,29,10,31,10.50
2016,01,29,10,32,12.60
2016,01,29,10,33,10.10
2016,01,29,10,34,10.70
2016,01,29,10,35,9.70
2016,01,29,10,36,9.20
2016,01,29,10,37,11.50
2016,01,29,10,38,10.70
2016,01,29,10,39,12.40
2016,01,29,10,40,8.00
2016,01,29,10,41,5.80
2016,01,29,10,42,4.50
2016,01,29,10,43,10.40
2016,01,29,10,44,12.00
2016,01,29,10,45,19.30
2016,01,29,10,46,14.80
2016,01,29,10,47,11.70
2016,01,29,10,48,8.80
2016,01,29,10,49,4.30
2016,01,29,10,50,8.20
2016,01,29,10,51,14.50
2016,01,29,10,52,14.20
2016,01,29,10,53,11.30
2016,01,29,10,54,15.00
2016,01,29,10,55,12.20
2016,01,29,10,56,14.50
2016,01,29,10,57,8.20
2016,01,29,10,58,11.40
2016,01,29,10,59,9.40
2016,01,29,11,00,5.70
2016,01,29,11,01,11.10
2016,01,29,11,02,10.90
2016,01,29,11,03,6.90
2016,01,29,11,04,6.00
2016,01,29,11,05,7.00
2016,01,29,11,06,9.80
2016,01,29,11,07,11.00
2016,01,29,11,08,9.70
2016,01,29,11,09,6.70
2016,01,29,11,10,9.60
2016,01,29,11,11,15.60
2016,01,29,11,12,9.40
2016,01,29,11,13,8.60
2016,01,29,11,14,9.70
2016,01,29,11,15,10.60
2016,01,29,11,16,16.40
2016,01,29,11,17,15.20
2016,01,29,11,18,17.50
2016,01,29,11,19,11.50
2016,01,29,11,20,11.00
2016,01,29,11,21,13.80
2016,01,29,11,22,13.50
2016,01,29,11,23,14.90
2016,01,29,11,24,7.90
2016,01,29,11,25,16.30
2016,01,29,11,26,11.10
2016,01,29,11,27,10.70
2016,01,29,11,28,17.00
2016,01,29,11,29,18.70
2016,01,29,11,30,10.30
2016,01,29,11,31,22.90
2016,01,29,11,32,15.10
2016,01,29,11,33,13.90
2016,01,29,11,34,12.10
2016,01,29,11,35,13.10
2016,01,29,11,36,18.10
2016,01,29,11,37,18.30
2016,01,29,11,38,8.70
2016,01,29,11,39,12.50
2016,01,29,11,40,15.40
2016,01,29,11,41,10.10
2016,01,29,11,42,20.10
2016,01,29,11,43,14.30
2016,01,29,11,44,12.70
2016,01,29,11,45,12.90
2016,01,29,11,46,19.70
2016,01,29,11,47,13.10
2016,01,29,11,48,19.20
2016,01,29,11,49,22.20
2016,01,29,11,50,14.60
2016,01,29,11,51,14.40
2016,01,29,11,52,18.40
2016,01,29,11,53,12.90
2016,01,29,11,54,9.70
2016,01,29,11,55,11.00
2016,01,29,11,56,12.80
2016,01,29,11,57,18.50
2016,01,29,11,58,12.80
2016,01,29,11,59,17.70
2016,01,29,12,00,13.80
2016,01,29,12,01,12.60
2016,01,29,12,02,7.80
2016,01,29,12,03,11.30
2016,01,29,12,04,12.70
2016,01,29,12,05,15.60
2016,01,29,12,06,12.90
2016,01,29,12,07,12.80
2016,01,29,12,08,15.90
2016,01,29,12,09,11.50
2016,01,29,12,10,11.60
2016,01,29,12,11,6.60
2016,01,29,12,12,8.60
2016,01,29,12,13,18.40
2016,01,29,12,14,17.10
2016,01,29,12,15,17.50
2016,01,29,12,16,19.00
2016,01,29,12,17,12.50
2016,01,29,12,18,8.60
2016,01,29,12,19,11.90
2016,01,29,12,20,10.70
2016,01,29,12,21,10.50
2016,01,29,12,22,15.60
2016,01,29,12,23,19.00
2016,01,29,12,24,9.30
2016,01,29,12,25,15.10
2016,01,29,12,26,16.70
2016,01,29,12,27,9.20
2016,01,29,12,28,13.10
2016,01,29,12,29,12.60
2016,01,29,12,30,13.10
2016,01,29,12,31,11.70
2016,01,29,12,32,9.40
2016,01,29,12,33,14.10
2016,01,29,12,34,18.70
2016,01,29,12,35,12.60
2016,01,29,12,36,17.10
2016,01,29,12,37,6.80
2016,01,29,12,38,10.30
2016,01,29,12,39,22.20
2016,01,29,12,40,18.60
2016,01,29,12,41,10.90
2016,01,29,12,42,10.90
2016,01,29,12,43,22.70
2016,01,29,12,44,18.00
2016,01,29,12,45,17.40
2016,01,29,12,46,13.20
2016,01,29,12,47,12.40
2016,01,29,12,48,13.90
2016,01,29,12,49,18.20
2016,01,29,12,50,11.70
2016,01,29,12,51,14.10
2016,01,29,12,52,10.50
2016,01,29,12,53,9.80
2016,01,29,12,54,20.40
2016,01,29,12,55,13.80
2016,01,29,12,56,17.00
2016,01,29,12,57,16.80
2016,01,29,12,58,12.10
2016,01,29,12,59,17.80
2016,01,29,13,00,15.80
2016,01,29,13,01,19.10
2016,01,29,13,02,11.90
2016,01,29,13,03,8.00
2016,01,29,13,04,13.00
2016,01,29,13,05,15.70
2016,01,29,13,06,16.70
2016,01,29,13,07,10.70
2016,01,29,13,08,16.90
2016,01,29,13,09,15.40
2016,01,29,13,10,13.10
2016,01,29,13,11,15.70
2016,01,29,13,12,24.50
2016,01,29,13,13,21.30
2016,01,29,13,14,15.20
2016,01,29,13,15,14.80
2016,01,29,13,16,21.00
2016,01,29,13,17,10.00
2016,01,29,13,18,15.10
2016,01,29,13,19,10.10
2016,01,29,13,20,11.70
2016,01,29,13,21,13.00
2016,01,29,13,22,14.70
2016,01,29,13,23,18.30
2016,01,29,13,24,16.50
2016,01,29,13,25,17.30
2016,01,29,13,26,11.90
2016,01,29,13,27,12.20
2016,01,29,13,28,12.10
2016,01,29,13,29,7.90
2016,01,29,13,30,13.20
2016,01,29,13,31,16.60
2016,01,29,13,32,17.10
2016,01,29,13,33,15.30
2016,01,29,13,34,9.80
2016,01,29,13,35,9.40
2016,01,29,13,36,10.10
2016,01,29,13,37,14.30
2016,01,29,13,38,15.90
2016,01,29,13,39,8.60
2016,01,29,13,40,8.00
2016,01,29,13,41,11.40
2016,01,29,13,42,15.00
2016,01,29,13,43,10.60
2016,01,29,13,44,9.90
2016,01,29,13,45,10.00
2016,01,29,13,46,9.20
2016,01,29,13,47,5.10
2016,01,29,13,48,8.10
2016,01,29,13,49,8.60
2016,01,29,13,50,11.70
2016,01,29,13,51,6.40
2016,01,29,13,52,7.80
2016,01,29,13,53,8.30
2016,01,29,13,54,10.10
2016,01,29,13,55,6.40
2016,01,29,13,56,6.20
2016,01,29,13,57,6.20
2016,01,29,13,58,6.10
2016,01,29,13,59,5.70
2016,01,29,14,00,3.80
2016,01,29,14,01,10.60
2016,01,29,14,02,4.20
2016,01,29,14,03,2.70
2016,01,29,14,04,4.80
2016,01,29,14,05,7.50
2016,01,29,14,06,6.60
2016,01,29,14,07,13.90
2016,01,29,14,08,9.80
2016,01,29,14,09,11.90
2016,01,29,14,10,9.40
2016,01,29,14,11,8.00
2016,01,29,14,12,16.30
2016,01,29,14,13,9.10
2016,01,29,14,14,7.60
2016,01,29,14,15,8.30
2016,01,29,14,16,8.70
2016,01,29,14,17,7.80
2016,01,29,14,18,3.30
2016,01,29,14,19,8.00
2016,01,29,14,20,9.10
2016,01,29,14,21,9.50
2016,01,29,14,22,2.80
2016,01,29,14,23,8.90
2016,01,29,14,24,6.60
2016,01,29,14,25,4.30
2016,01,29,14,26,2.90
2016,01,29,14,27,6.40
2016,01,29,14,28,8.50
2016,01,29,14,29,10.40
2016,01,29,14,30,8.10
2016,01,29,14,31,5.20
2016,01,29,14,32,3.00
2016,01,29,14,33,3.80
2016,01,29,14,34,6.30
2016,01,29,14,35,6.70
2016,01,29,14,36,5.20
2016,01,29,14,37,7.00
2016,01,29,14,38,3.60
2016,01,29,14,39,2.60
2016,01,29,14,40,4.80
2016,01,29,14,41,3.90
2016,01,29,14,42,2.00
2016,01,29,14,43,1.70
2016,01,29,14,44,3.10
2016,01,29,14,45,2.00
2016,01,29,14,46,1.80
2016,01,29,14,47,1.40
2016,01,29,14,48,1.20
2016,01,29,14,49,3.20
2016,01,29,14,50,3.40
2016,01,29,14,51,3.50
2016,01,29,14,52,5.80
2016,01,29,14,53,5.40
2016,01,29,14,54,5.80
2016,01,29,14,55,6.90
2016,01,29,14,56,5.50
2016,01,29,14,57,6.90
2016,01,29,14,58,4.70
2016,01,29,14,59,4.90
2016,01,29,15,00,5.20
2016,01,29,15,01,3.30
2016,01,29,15,02,3.60
2016,01,29,15,03,4.80
2016,01,29,15,04,2.00
2016,01,29,15,05,3.30
2016,01,29,15,06,4.00
2016,01,29,15,07,4.70
2016,01,29,15,08,0.90
2016,01,29,15,09,1.40
2016,01,29,15,10,0.20
2016,01,29,15,11,0.20
2016,01,29,15,12,2.00
2016,01,29,15,13,1.60
2016,01,29,15,14,0.20
2016,01,29,15,15,0.60
2016,01,29,15,16,0.30
2016,01,29,15,17,0.10
2016,01,29,15,18,0.70
2016,01,29,15,19,0.30
2016,01,29,15,20,1.50
2016,01,29,15,21,2.80
2016,01,29,15,22,1.40
2016,01,29,15,23,1.00
2016,01,29,15,24,1.70
2016,01,29,15,25,5.20
2016,01,29,15,26,3.80
2016,01,29,15,27,4.40
2016,01,29,15,28,4.20
2016,01,29,15,29,4.50
2016,01,29,15,30,2.10
2016,01,29,15,31,2.40
2016,01,29,15,32,2.80
2016,01,29,15,33,3.40
2016,01,29,15,34,5.40
2016,01,29,15,35,4.10
2016,01,29,15,36,2.40
2016,01,29,15,37,1.70
2016,01,29,15,38,1.90
2016,01,29,15,39,3.00
2016,01,29,15,40,3.70
2016,01,29,15,41,3.30
2016,01,29,15,42,2.20
2016,01,29,15,43,2.90
2016,01,29,15,44,3.70
2016,01,29,15,45,3.20
2016,01,29,15,46,2.70
2016,01,29,15,47,2.90
2016,01,29,15,48,2.20
2016,01,29,15,49,2.90
2016,01,29,15,50,4.10
2016,01,29,15,51,2.60
2016,01,29,15,52,3.70
2016,01,29,15,53,5.10
2016,01,29,15,54,4.00
2016,01,29,15,55,2.80
2016,01,29,15,56,3.20
2016,01,29,15,57,2.70
2016,01,29,15,58,3.20
2016,01,29,15,59,2.10
2016,01,29,16,00,2.40
2016,01,29,16,01,2.40
2016,01,29,16,02,3.20
2016,01,29,16,03,3.30
2016,01,29,16,04,3.20
2016,01,29,16,05,3.40
2016,01,29,16,06,4.70
2016,01,29,16,07,4.10
2016,01,29,16,08,2.40
2016,01,29,16,09,2.90
2016,01,29,16,10,1.10
2016,01,29,16,11,3.10
2016,01,29,16,12,4.20
2016,01,29,16,13,6.00
2016,01,29,16,14,6.70
2016,01,29,16,15,6.10
2016,01,29,16,16,4.30
2016,01,29,16,17,7.80
2016,01,29,16,18,6.60
2016,01,29,16,19,5.50
2016,01,29,16,20,4.30
2016,01,29,16,21,5.40
2016,01,29,16,22,5.00
2016,01,29,16,23,10.60
2016,01,29,16,24,7.30
2016,01,29,16,25,10.50
2016,01,29,16,26,9.00
2016,01,29,16,27,6.10
2016,01,29,16,28,6.50
2016,01,29,16,29,8.30
2016,01,29,16,30,6.50
2016,01,29,16,31,3.10
2016,01,29,16,32,3.40
2016,01,29,16,33,3.70
2016,01,29,16,34,2.60
2016,01,29,16,35,1.00
2016,01,29,16,36,1.80
2016,01,29,16,37,1.10
2016,01,29,16,38,0.50
2016,01,29,16,39,1.30
2016,01,29,16,40,1.90
2016,01,29,16,41,2.60
2016,01,29,16,42,2.50
2016,01,29,16,43,1.00
2016,01,29,16,44,0.10
2016,01,29,16,45,0.00
2016,01,29,16,46,0.00
2016,01,29,16,47,0.00
2016,01,29,16,48,0.00
2016,01,29,16,49,0.10
2016,01,29,16,50,0.00
2016,01,29,16,51,0.00
2016,01,29,16,52,0.00
2016,01,29,16,53,2.00
2016,01,29,16,54,3.30
2016,01,29,16,55,4.70
2016,01,29,16,56,4.70
2016,01,29,16,57,7.00
2016,01,29,16,58,3.60
2016,01,29,16,59,1.30
2016,01,29,17,00,3.30
2016,01,29,17,01,3.40
2016,01,29,17,02,3.70
2016,01,29,17,03,4.90
2016,01,29,17,04,4.10
2016,01,29,17,05,3.60
2016,01,29,17,06,3.40
2016,01,29,17,07,4.50
2016,01,29,17,08,4.40
2016,01,29,17,09,5.20
2016,01,29,17,10,5.70
2016,01,29,17,11,4.50
2016,01,29,17,12,4.60
2016,01,29,17,13,3.10
2016,01,29,17,14,2.90
2016,01,29,17,15,3.30
2016,01,29,17,16,6.20
2016,01,29,17,17,5.20
2016,01,29,17,18,5.00
2016,01,29,17,19,3.80
2016,01,29,17,20,4.10
2016,01,29,17,21,3.40
2016,01,29,17,22,3.70
2016,01,29,17,23,3.30
2016,01,29,17,24,0.90
2016,01,29,17,25,3.80
2016,01,29,17,26,7.20
2016,01,29,17,27,3.30
2016,01,29,17,28,2.70
2016,01,29,17,29,1.70
2016,01,29,17,30,0.60
2016,01,29,17,31,2.60
2016,01,29,17,32,3.50
2016,01,29,17,33,3.20
2016,01,29,17,34,2.50
2016,01,29,17,35,3.20
2016,01,29,17,36,3.20
2016,01,29,17,37,4.30
2016,01,29,17,38,3.90
2016,01,29,17,39,4.20
2016,01,29,17,40,6.60
2016,01,29,17,41,4.20
2016,01,29,17,42,5.00